Location: General Nathan Twining Observatory
(34.5931°N, 106.8201°W)
Time: 17:45:08
(UTC-07:00)

Daily predictions for brighter satellites

Satellite Brightness Start Highest point End
(mag) Time Altitude Azimuth Time Altitude Azimuth Time Altitude Azimuth
Cosmos 990 Rocket 4.4 17:39:53 10° N 17:44:53 43° ENE 17:49:51 10° SE
Cosmos 2221 3.5 17:41:45 10° NNW 17:45:54 53° W 17:50:01 10° S
Cosmos 2333 Rocket 3.0 17:43:11 10° SSE 17:48:05 31° ESE 17:53:00 10° NE
Cosmos 2298 Rocket 4.1 17:47:21 10° NNW 17:52:40 90° E 17:57:58 10° SSE
Cosmos 1766 Rocket 4.1 17:48:46 10° SSW 17:53:11 65° W 17:57:38 10° N
MSX 3.8 17:48:43 10° SSE 17:54:25 79° ENE 18:00:09 10° N
Cosmos 841 Rocket 3.5 17:50:17 10° S 17:55:29 67° ESE 18:00:44 10° NNE
Cosmos 2228 Rocket 3.1 17:58:22 10° N 18:02:43 58° E 18:07:05 10° SSE
YAOGAN 1 3.1 17:59:25 10° S 18:03:41 64° WSW 18:08:00 10° NNW
COSMO-SKYMED 1 2.5 18:00:30 10° NNE 18:04:50 68° E 18:09:08 10° S
Cosmos 332 Rocket 3.8 18:00:46 10° S 18:05:32 70° ESE 18:10:21 10° NNE
SL-14 R/B 4.2 18:03:02 10° SSE 18:06:22 28° E 18:09:45 10° NNE
Aureole 2 Rocket 4.5 18:05:08 10° ESE 18:06:29 12° E 18:06:47 12° E
Cosmos 1937 Rocket 3.5 18:02:02 10° NNW 18:07:14 88° WSW 18:12:27 10° SSE
Cosmos 2219 Rocket 2.2 18:03:47 10° S 18:09:22 66° ESE 18:14:58 10° NNE
Cosmos 1908 3.4 18:06:56 10° N 18:10:48 79° W 18:14:41 10° S
Cosmos 2084 3.4 18:09:09 10° SSW 18:13:00 50° ESE 18:16:06 14° NE
Cosmos 1484 Rocket 2.7 18:09:16 10° SSE 18:13:07 84° ENE 18:17:05 10° N
Cosmos 2278 Rocket 3.2 18:10:08 10° N 18:14:38 24° ENE 18:19:08 10° ESE
CZ-4 R/B 3.8 18:12:24 10° SSW 18:15:42 26° W 18:19:01 10° NW
Cosmos 389 Rocket 3.6 18:14:26 10° NNW 18:17:54 48° W 18:21:19 10° S
Intelsat 5-1 Rocket 3.8 18:17:15 10° SSW 18:19:07 15° SSE 18:21:45 10° SE
Cosmos 836 Rocket 4.4 18:14:56 10° S 18:20:06 71° ESE 18:25:20 10° NNE
CENTAUR R/B 3.3 18:17:00 10° SW 18:22:45 48° NW 18:29:13 10° NNE
Cosmos 1674 4.3 18:20:20 10° SSW 18:23:51 37° W 18:27:26 10° NNW
Cosmos 1844 3.9 18:19:08 10° N 18:24:45 51° ENE 18:30:21 10° SE
COSMOS 2428 3.8 18:22:52 10° SW 18:28:19 45° WNW 18:33:47 10° N
Abrixas 3.9 18:27:56 10° S 18:30:16 22° SE 18:30:36 21° SE
ALOS 3.3 18:27:06 10° ESE 18:30:40 22° ENE 18:34:15 10° NNE
FREGAT/IRIS 4.3 18:29:04 10° SE 18:30:17 19° ESE 18:30:17 19° ESE
Cosmos 1626 4.4 18:29:39 10° SE 18:29:48 11° SE 18:29:48 11° SE
Hubble Space Telescope 2.3 18:30:19 10° WSW 18:33:58 30° S 18:37:08 13° SE
Cosmos 44 3.5 18:30:41 10° SSW 18:35:55 62° ESE 18:39:29 20° NE
Cosmos 371 Rocket 3.4 18:32:07 10° SSW 18:36:55 76° WNW 18:41:44 10° NNE
Cosmos 2237 Rocket 2.1 18:31:31 10° S 18:37:04 67° ESE 18:42:11 13° NNE
Abrixas rocket 2.1 18:33:46 10° NW 18:37:06 88° NE 18:38:58 24° SE
SL-16 R/B 3.1 18:35:41 10° SSE 18:40:22 27° ESE 18:41:30 26° E
Cosmos 1300 2.6 18:37:03 10° N 18:40:51 66° E 18:44:39 10° SSE
Cosmos 1328 4.5 18:42:51 10° SSW 18:46:43 55° W 18:50:36 10° N
Cosmos 2058 2.7 18:44:14 10° S 18:48:20 77° E 18:51:51 14° N
Meteor 1-11 4.1 18:44:48 10° S 18:50:26 80° E 18:56:10 10° N
Cosmos 1515 Rocket 4.5 18:48:15 10° NNW 18:52:35 50° W 18:56:52 10° SSW
NOAA 12 4.0 18:48:44 10° SSE 18:53:57 89° E 18:59:14 10° NNW
Cosmos 1726 2.2 18:50:31 10° N 18:54:17 76° W 18:58:02 10° S
Cosmos 44 Rocket 4.1 18:50:12 10° SW 18:55:12 53° WNW 18:59:13 16° NNE
Cosmos 1805 Rocket 3.6 18:51:50 10° S 18:56:09 53° E 18:57:26 39° NE
SJ-6B 2.7 18:52:43 10° SSE 18:56:42 81° ENE 19:00:48 10° N
Cosmos 372 Rocket 4.0 18:53:45 10° N 18:58:41 49° ENE 19:01:25 25° SE
Cosmos 783 Rocket 4.5 18:58:01 10° SSW 19:03:19 89° WNW 19:07:01 21° NNE
Cosmos 2151 3.9 18:59:37 10° SSW 19:03:41 47° W 19:07:46 10° N
BREEZE-M DEB (TANK) 3.7 19:03:05 10° W 19:04:57 25° NW 19:04:57 25° NW
FengYun 1-2 T 4.2 19:01:01 10° SSE 19:06:29 58° ENE 19:11:55 10° N
Cosmos 1151 Rocket 4.0 19:06:21 10° NNW 19:10:27 46° W 19:14:32 10° SSW
Cosmos 540 Rocket 4.1 19:06:22 10° SSW 19:11:25 55° WNW 19:15:48 14° N
OTV 4 2.4 19:10:03 10° WNW 19:11:32 25° NW 19:11:32 25° NW
Milstar 3 3.6 19:08:14 10° W 19:14:28 44° S 19:19:01 23° SE
Cosmos 1844 Rocket 4.0 19:12:09 10° NW 19:17:23 40° WSW 19:22:35 10° S
OAO 3 Rocket 3.8 19:12:43 10° W 19:17:26 51° SSW 19:18:31 41° SSE
Cosmos 1125 Rocket 3.7 19:14:21 10° NNW 19:19:31 68° WSW 19:24:39 10° S
Resurs 01 Rocket 3.7 19:23:01 16° N 19:23:01 16° N 19:23:59 10° N
USA 215 3.5 19:13:15 10° SE 19:19:47 70° SW 19:26:20 10° NW
Cosmos 1703 3.4 19:16:04 10° S 19:19:33 67° SW 19:19:33 67° SW
Atlas Centaur 2 3.2 19:16:37 10° WSW 19:20:04 22° SSW 19:21:12 19° S
OAO 1 Rocket 4.2 19:17:19 10° W 19:22:39 85° N 19:23:07 74° ENE
SEDSat Delta rocket 4.1 19:19:05 10° W 19:23:59 40° SSW 19:24:50 36° S
Sich 1 4.1 19:20:01 10° S 19:22:37 35° S 19:22:37 35° S
Spot 2 Rocket 3.3 19:22:02 10° SSE 19:27:06 83° ENE 19:32:09 10° NNW
Cosmos 304 Rocket 3.7 19:22:44 10° SSW 19:27:32 81° WNW 19:27:52 75° NNW
Cosmos 1340 Rocket 3.9 19:24:57 10° SSW 19:28:43 41° W 19:29:45 34° NW
CZ-3A R/B 3.3 19:26:06 10° NNW 19:29:46 44° NNE 19:29:46 44° NNE
Cosmos 1538 Rocket 4.2 19:26:02 10° S 19:30:24 59° SSE 19:30:24 59° SSE
Cosmos 2333 Rocket 3.8 19:27:19 10° WSW 19:32:14 30° WNW 19:36:58 11° N
FENGYUN 3A 3.8 19:36:57 10° S 19:42:16 69° WSW 19:47:37 10° NNW
USA 229 DEB 4.3 19:51:49 10° SSW 19:56:19 42° S 19:56:19 42° S
USA 229 4.4 19:51:56 10° SSW 19:56:21 41° S 19:56:21 41° S
Cosmos 2278 Rocket 3.3 19:53:32 10° NW 19:58:50 42° WSW 20:04:07 10° S
ALOS 4.0 20:03:48 10° SSW 20:07:54 30° W 20:12:01 10° NW
Hubble Space Telescope 3.9 20:12:18 10° SW 20:12:32 11° SW 20:12:32 11° SW
SL-16 R/B 3.7 20:19:11 10° SW 20:23:27 33° W 20:23:27 33° W
